     2              OBSERVATION DATA    GPS                 RINEX VERSION / TYPE
teqc 1998Mar9 19980311 23:38:14UTC                          PGM / RUN BY / DATE
                                                            COMMENT
Original Marker Name: unknown                               COMMENT
Campaign Name: Cholame 1989                                 COMMENT
4-Character Station Name: P807                              COMMENT
6-Character Antenna Code: TI4100                            COMMENT
Vertical Measurement Point: PAE                             COMMENT
Vertical Offset to Rinex Ref. Point: 0.0000                 COMMENT
Radial Measurement Point: PAE                               COMMENT
Radial Offset to Rinex Ref. Point: 0.0842                   COMMENT
Antenna Height from Field Measurement: 1.1890 m             COMMENT
Original XYZ: 0.0000 0.0000 0.0000                          COMMENT
New XYZ position is based on association with SCEC monument COMMENT
E1F1F2B2+0011. Position of that monument is believed to be  COMMENT
valid to within 1 m horizontally; vertical accuracy         COMMENT
should be no worse than 3-times this value.                 COMMENT
                                                            COMMENT
Revised Rinex header created by UCSD GPS archive for        COMMENT
GSAC on 14-Apr-1999 (1999:104) 22:33:51 GMT                 COMMENT
For assistance contact dagnew@ucsd.edu or hjohnson@ucsd.edu COMMENT
                                                            COMMENT
P807                                                        MARKER NAME
unknown UCLA                                                OBSERVER / AGENCY
UN06 TI 4100 2.1                                            REC # / TYPE / VERS
UN06 TI 4100                                                ANT # / TYPE
 -2584426.0000 -4502907.0000  3692603.0000                  APPROX POSITION XYZ
        1.1860        0.0000        0.0000                  ANTENNA: DELTA H/E/N
     1     1     0                                          WAVELENGTH FACT L1/2
     4    P1    P2    L1    L2                              # / TYPES OF OBSERV
     0                                                      INTERVAL
  1989    11    25     9    23   59.000000                  TIME OF FIRST OBS
  1989    11    25    16     8   59.000000                  TIME OF LAST OBS
     0                                                      # OF SATELLITES
                                                            END OF HEADER
 89 11 25  9 23 59.1200000  0  3G 2G 6G11
  21753864.107    21753867.618      534642.025 9   -114644.685 9
  20636725.923    20636726.919     2173927.966 9  -4423570.263 8
  22396511.855    22396516.247     1227513.686 9  -5043329.400 9
 89 11 25  9 24 29.1200000  0  3G 2G 6G11
  21768582.841    21768584.820      611988.726 9    -54374.549 8
  20626228.626    20626230.753     2118767.903 9  -4466552.127 8
  22375848.199    22375852.562     1118928.839 9  -5127940.982 8
 89 11 25  9 24 59.1200000  0  4G 2G 6G11G 9
  21783315.361    21783317.203      689410.438 8      5954.043 8
  20615753.443    20615754.544     2063719.829 9  -4509446.719 8
  22355219.841    22355223.043     1010525.644 9  -5212410.979 9
                                   -357510.152 1    456000.000 1
 89 11 25  9 25 29.0800000  0  4G 2G 6G11G 9
  21798042.144    21798044.542      766802.729 9     66259.701 9
  20605314.235    20605315.122     2008858.547 6  -4552195.766 4
  22334654.539    22334657.868      902451.640 9  -5296624.487 7
                                   -505614.018 1    683696.000 1
 89 11 25  9 25 59.0800000  0  4G 2G 6G11G 9
  21812803.721    21812805.275      844371.084 9    126702.551 8
  20594882.684    20594884.208     1954038.783 9  -4594912.462 8
  22314096.632    22314101.371      794421.038 9  -5380804.205 8
                                   -716781.453 1    911696.000 1
 89 11 25  9 26 29.0800000  0  3G 2G 6G11
  21827577.892    21827580.420      922011.266 8    187201.367 8
  20584472.528    20584474.044     1899334.974 6  -4637538.805 7
  22293576.382    22293579.050      686581.014 9  -5464835.390 9
 89 11 25  9 26 59.0800000  0  4G 2G 6G11G 9
  21842366.028    21842368.922      999721.623 8    247754.877 8
  20574084.957    20574087.560     1844748.279 9  -4680073.884 8
  22273090.898    22273094.820      578934.352 9  -5548715.890 7
                                  -1077619.529 1   1367696.000 1
 89 11 25  9 27 29.0800000  0  4G 2G 6G11G 9
  21857165.680    21857168.698     1077502.516 9    308363.349 9
  20563719.411    20563721.935     1790280.750 9  -4722516.105 8
  22252644.041    22252647.890      471484.294 9  -5632443.225 7
                                  -1225763.759 1   1595696.000 1
 89 11 25  9 27 59.0800000  0  3G 2G 6G11
  21871980.509    21871984.437     1155352.393 8    369025.576 8
  20553377.056    20553379.224     1735933.522 9  -4764864.577 8
  22232233.651    22232238.201      364233.751 9  -5716015.076 8
 89 11 25  9 28 29.0800000  0  4G 2G 6G11G 9
  21886807.988    21886809.742     1233269.600 9    429740.265 8
  20543059.648    20543059.525     1681707.250 9  -4807118.816 8
  22211863.671    22211868.836      257185.464 9  -5799429.314 8
                                  -1617694.595 1   2051696.000 1
 89 11 25  9 28 59.0800000  0  4G 2G 6G11G 9
  21901648.158    21901649.988     1311253.402 9    490506.845 9
  20532763.709    20532765.094     1627603.766 8  -4849277.370 7
  22191531.672    22191536.032      150342.400 9  -5882683.621 9
                                  -1764808.983 1   2279696.000 1
 89 11 25  9 29 29.0800000  0  4G 2G 6G11G 9
  21916500.805    21916503.007     1389303.250 9    551324.870 9
  20522491.988    20522493.791     1573624.605 9  -4891339.051 8
  22171240.428    22171244.337       43707.750 8  -5965775.502 8
  23282632.555    23282634.897    -1910832.949 8   2427685.645 8
 89 11 25  9 29 59.0800000  0  4G 2G 6G11G 9
  21931366.077    21931367.978     1467417.916 9    612193.393 9
  20512243.421    20512245.160     1519771.005 9  -4933302.889 8
  22150987.987    22150993.148      -62716.021 7  -6048703.051 9
  23266224.426    23266226.678    -1997059.535 8   2360496.117 8
 89 11 25  9 30 29.0800000  0  4G 2G 6G11G 9
  21946242.183    21946244.324     1545595.751 9    673111.153 9
  20502020.247    20502021.446     1466043.816 8  -4975168.231 8
  22130778.252    22130781.953     -168926.185 9  -6131464.179 9
  23249809.002    23249810.485    -2083324.534 9   2293276.621 8
 89 11 25  9 30 59.0800000  0  4G 2G 6G11G 9
  21961131.086    21961133.139     1623836.516 8    734077.961 9
  20491819.888    20491821.901     1412445.086 9  -5016933.463 8
  22110608.008    22110611.657     -274919.192 9  -6214056.095 8
  23233386.452    23233387.918    -2169626.897 9   2226028.025 9
 89 11 25  9 31 29.0800000  0  4G 2G 6G11G 9
  21976031.499    21976033.786     1702139.487 8    795093.232 8
  20481645.236    20481647.668     1358976.233 9  -5058597.511 8
  22090480.846    22090484.823     -380692.141 9  -6296476.548 8
  23216956.111    23216958.586    -2255965.920 9   2158750.863 8
 89 11 25  9 31 59.0800000  0  4G 2G 6G11G 9
  21990943.926    21990945.818     1780503.755 8    856156.274 9
  20471496.151    20471496.967     1305638.786 9  -5100159.152 7
  22070394.755    22070398.265     -486242.181 9  -6378723.333 9
  23200519.723    23200521.671    -2342340.915 9   2091445.673 9
 89 11 25  9 32 29.0800000  0  4G 2G 6G11G 9
  22005868.142    22005869.619     1858927.989 8    917266.046 8
  20461371.500    20461373.637     1252433.961 9  -5141617.452 8
  22050351.718    22050354.489     -591566.891 9  -6460794.503 9
  23184076.603    23184078.445    -2428751.501 9   2024112.754 8
 89 11 25  9 32 59.0800000  0  4G 2G 6G11G 9
  22020801.906    22020804.043     1937411.217 9    978421.775 9
  20451272.114    20451274.729     1199363.306 8  -5182971.202 9
  22030353.289    22030355.740     -696663.155 9  -6542687.686 9
  23167626.578    23167629.039    -2515196.762 9   1956752.836 8
 89 11 25  9 33 29.0800000  0  4G 2G 6G11G 9
  22035748.670    22035750.251     2015952.772 8   1039622.955 8
  20441200.073    20441201.704     1146428.432 9  -5224219.154 8
  22010397.606    22010401.493     -801527.998 9  -6624400.554 8
  23151170.243    23151172.289    -2601676.148 9   1889366.323 9
 89 11 25  9 33 59.0800000  0  4G 2G 6G11G 9
  22050705.345    22050707.752     2094551.718 8   1100868.850 8
  20431152.613    20431152.627     1093630.801 9  -5265360.153 8
  21990486.691    21990490.884     -906158.113 9  -6705930.493 9
  23134706.780    23134708.662    -2688188.586 9   1821954.061 7
 89 11 25  9 34 29.0800000  0  4G 2G 6G11G 9
  22065671.248    22065675.093     2173206.881 9   1162158.567 9
  20421131.415    20421132.715     1040971.900 9  -5306393.064 8
  21970621.030    21970625.819    -1010550.679 9  -6787275.345 8
  23118237.952    23118240.027    -2774733.380 9   1754516.577 8
 89 11 25  9 34 59.0800000  0  4G 2G 6G11G 9
  22080650.534    22080653.640     2251917.603 8   1223491.573 8
  20411137.329    20411139.622      988453.067 9  -5347316.820 7
  21950801.323    21950805.974    -1114703.195 9  -6868433.140 8
  23101762.237    23101765.306    -2861310.215 9   1687054.136 7
 89 11 25  9 35 29.0800000  0  4G 2G 6G11G 9
  22095640.136    22095642.173     2330682.741 9   1284866.978 8
  20401170.551    20401172.482      936075.616 9  -5388130.398 8
  21931028.358    21931032.799    -1218612.774 9  -6949401.597 9
  23085282.413    23085284.695    -2947918.618 9   1619567.111 7
 89 11 25  9 35 59.0800000  0  4G 2G 6G11G 9
  22110638.267    22110641.036     2409501.651 9   1346284.284 9
  20391230.674    20391232.047      883841.389 9  -5428832.382 8
  21911301.694    21911306.088    -1322276.449 9  -7030178.473 8
  23068795.063    23068797.888    -3034557.161 8   1552056.589 8
 89 11 25  9 36 29.0800000  0  4G 2G 6G11G 9
  22125647.173    22125649.540     2488373.963 9   1407743.212 8
  20381318.423    20381319.582      831751.995 9  -5469421.509 8
  21891623.300    21891626.355    -1425691.393 9  -7110761.500 9
  23052302.356    23052305.210    -3121225.435 8   1484522.903 7
 89 11 25  9 36 59.0800000  0  4G 2G 6G11G 9
  22140666.291    22140667.835     2567298.387 9   1469242.753 8
  20371432.149    20371435.365      779808.955 9  -5509896.618 8
  21871991.824    21871996.686    -1528854.511 8  -7191148.321 8
  23035805.235    23035806.203    -3207922.577 8   1416966.706 7
 89 11 25  9 37 29.0800000  0  4G 2G 6G11G 9
  22155695.054    22155696.891     2646273.958 9   1530782.133 9
  20361577.383    20361579.438      728013.748 9  -5550256.519 8
  21852407.476    21852413.521    -1631762.828 9  -7271336.588 9
  23019301.704    23019304.958    -3294647.511 8   1349388.872 7
 89 11 25  9 37 59.0800000  0  4G 2G 6G11G 9
  22170732.956    22170736.153     2725299.800 9   1592360.691 9
  20351749.158    20351750.986      676367.914 9  -5590500.023 8
  21832874.447    21832878.773    -1734413.577 9  -7351324.137 9
  23002792.701    23002795.854    -3381400.017 8   1281789.573 8
 89 11 25  9 38 29.0800000  0  4G 2G 6G11G 9
  22185781.145    22185783.273     2804375.225 9   1653977.884 8
  20341950.650    20341952.612      624873.125 9  -5630625.836 8
  21813391.050    21813394.560    -1836803.805 9  -7431108.720 9
  22986279.157    22986280.567    -3468179.004 7   1214169.661 8
 89 11 25  9 38 59.0800000  0  4G 2G 6G11G 9
  22200837.910    22200839.862     2883499.347 9   1715633.024 8
  20332180.767    20332182.218      573530.578 9  -5670633.010 8
  21793955.547    21793961.413    -1938931.090 9  -7510688.397 9
  22969759.917    22969761.797    -3554983.724 7   1146529.689 7
 89 11 25  9 39 29.0800000  0  4G 2G 6G11G 9
  22215903.775    22215906.342     2962670.900 9   1777325.120 9
  20322439.837    20322441.120      522342.118 9  -5710520.108 8
  21774573.831    21774576.163    -2040792.494 9  -7590060.870 9
  22953237.233    22953240.852    -3641813.656 7   1078870.075 8
 89 11 25  9 39 59.0800000  0  4G 2G 6G11G 9
  22230977.498    22230979.906     3041890.135 9   1839054.391 9
  20312728.298    20312731.289      471309.794 9  -5750285.551 9
  21755240.141    21755244.084    -2142384.697 9  -7669223.613 9
  22936710.408    22936712.612    -3728667.169 6   1011192.077 7
 89 11 25  9 40 29.0800000  0  4G 2G 6G11G 9
  22246062.137    22246065.328     3121155.484 9   1900819.567 8
  20303047.509    20303049.256      420434.814 9  -5789928.385 9
  21735960.185    21735963.185    -2243705.006 9  -7748174.460 8
  22920178.935    22920180.461    -3815543.876 8    943495.988 8
 89 11 25  9 40 59.0800000  0  4G 2G 6G11G 9
  22261154.288    22261155.283     3200466.230 9   1962620.122 8
  20293396.433    20293397.040      369718.676 9  -5829447.448 8
  21716731.642    21716736.158    -2344750.920 9  -7826911.517 9
  22903641.080    22903643.381    -3902442.979 9    875782.440 7
 89 11 25  9 41 29.0800000  0  4G 2G 6G11G 9
  22276253.627    22276257.684     3279821.867 8   2024455.652 8
  20283775.109    20283776.397      319163.323 9  -5868841.224 8
  21697555.569    21697559.176    -2445519.265 9  -7905432.297 8
  22887102.164    22887102.913    -3989363.418 8    808052.271 8
 89 11 25  9 41 59.0800000  0  4G 2G 6G11G 9
  22291363.685    22291367.662     3359221.927 8   2086325.800 9
  20274186.044    20274188.808      268770.135 9  -5908108.633 8
  21678433.629    21678437.077    -2546007.618 9  -7983734.892 9
  22870556.424    22870558.564    -4076304.415 9    740306.056 7
 89 11 25  9 42 29.0800000  0  4G 2G 6G11G 9
  22306481.116    22306484.922     3438665.506 9   2148229.843 9
  20264627.480    20264629.384      218540.794 9  -5947248.365 8
  21659365.430    21659369.239    -2646212.800 9  -8061816.846 8
  22854008.964    22854011.170    -4163265.078 9    672544.538 8
 89 11 25  9 42 59.0800000  0  4G 2G 6G11G 9
  22321606.636    22321609.873     3518151.167 8   2210166.683 8
  20255101.229    20255102.179      168477.054 9  -5986259.066 8
  21640351.019    21640354.334    -2746132.333 9  -8139676.191 9
  22837457.289    22837459.719    -4250244.515 9    604768.382 8
 89 11 25  9 43 29.0800000  0  4G 2G 6G11G 9
  22336741.492    22336744.072     3597678.437 8   2272135.941 9
  20245605.509    20245608.260      118580.581 9  -6025139.428 7
  21621392.461    21621395.034    -2845763.270 9  -8217310.682 9
  22820901.693    22820904.224    -4337241.754 9    536978.364 8
 89 11 25  9 43 59.0800000  0  4G 2G 6G11G 9
  22351882.423    22351885.249     3677246.431 8   2334136.932 9
  20236143.099    20236144.811       68853.078 9  -6063888.114 8
  21602488.226    21602491.496    -2945102.688 9  -8294717.994 8
  22804342.756    22804346.177    -4424255.894 9    469175.185 9
 89 11 25  9 44 29.0800000  0  4G 2G 6G11G 9
  22367031.866    22367034.519     3756854.209 8   2396168.931 9
  20226713.103    20226715.125       19295.935 9  -6102504.067 9
  21583639.712    21583644.934    -3044148.102 9  -8371896.215 8
  22787781.952    22787784.092    -4511286.319 9    401359.320 8
 89 11 25  9 44 59.0800000  0  4G 2G 6G11G 9
  22382187.400    22382190.373     3836501.502 9   2458231.719 9
  20217314.827    20217316.651      -30089.057 9  -6140985.886 8
  21564849.398    21564853.061    -3142896.562 9  -8448843.062 8
  22771217.934    22771220.859    -4598331.689 9    333531.791 9
 89 11 25  9 45 29.0800000  0  4G 2G 6G11G 9
  22397351.079    22397354.357     3916187.189 9   2520324.434 9
  20207950.520    20207952.032      -79300.246 8  -6179332.263 8
  21546114.967    21546119.369    -3241345.599 9  -8525556.568 8
  22754651.123    22754652.448    -4685391.299 9    265693.165 7
 89 11 25  9 45 59.0800000  0  4G 2G 6G11G 9
  22412523.339    22412524.805     3995911.315 9   2582447.108 8
  20198620.084    20198621.153     -128335.633 9  -6217541.652 8
  21527438.018    21527441.964    -3339492.059 9  -8602034.320 8
  22738082.480    22738083.558    -4772463.917 9    197844.392 7
 89 11 25  9 46 29.0800000  0  4G 2G 6G11G 9
  22427700.440    22427703.252     4075672.609 9   2644598.729 8
  20189321.840    20189323.491     -177193.658 9  -6255612.830 7
  21508819.229    21508823.542    -3437333.369 9  -8678274.301 8
  22721510.032    22721512.221    -4859548.651 9    129986.174 8
 89 11 25  9 46 59.0800000  0  4G 2G 6G11G 9
  22442886.080    22442888.918     4155470.527 9   2706778.902 9
  20180059.297    20180061.138     -225872.618 9  -6293544.492 8
  21490260.169    21490264.717    -3534866.897 9  -8754274.434 9
  22704934.997    22704938.585    -4946644.599 9     62119.240 8
 89 11 25  9 47 29.0800000  0  4G 2G 6G11G 9
  22458077.919    22458081.130     4235304.599 9   2768987.239 8
  20170829.335    20170831.144     -274370.578 9  -6331335.110 8
  21471758.829    21471762.293    -3632089.280 9  -8830032.118 8
  22688359.846    22688362.421    -5033750.767 7     -5755.638 8
 89 11 25  9 47 59.0800000  0  4G 2G 6G11G 9
  22473276.881    22473279.228     4315173.503 9   2831222.744 9
  20161635.994    20161636.902     -322686.329 9  -6368983.722 9
  21453317.487    21453321.985    -3728998.450 8  -8905545.737 8
  22671782.100    22671785.832    -5120866.224 8    -73637.771 8
 89 11 25  9 48 29.0800000  0  4G 2G 6G11G 9
  22488481.868    22488483.676     4395076.781 9   2893485.015 9
  20152477.013    20152477.744     -370817.781 9  -6406488.766 8
  21434937.026    21434941.583    -3825591.353 9  -8980812.931 9
  22655203.144    22655205.539    -5207989.911 9   -141526.294 8
 89 11 25  9 48 59.0800000  0  4G 2G 6G11G 9
  22503693.111    22503695.168     4475013.882 9   2955773.640 9
  20143353.140    20143355.892     -418763.153 8  -6443848.805 8
  21416616.332    21416619.530    -3921865.476 9  -9055831.693 9
  22638623.170    22638625.682    -5295120.547 7   -209420.251 8
 89 11 25  9 49 29.0800000  0  4G 2G 6G11G 9
  22518910.178    22518913.317     4554984.476 9   3018088.357 8
  20134265.905    20134267.097     -466520.334 9  -6481062.186 8
  21398357.173    21398360.432    -4017817.632 9  -9130599.600 9
  22622041.502    22622043.519    -5382256.759 9   -277318.554 9
 89 11 25  9 49 59.0800000  0  4G 2G 6G11G 9
  22534135.022    22534137.737     4634987.489 9   3080428.352 8
  20125213.169    20125215.131     -514087.979 9  -6518127.880 8
  21380158.740    21380163.578    -4113445.610 9  -9205114.894 9
  22605458.306    22605461.542    -5469398.119 8   -345220.860 8
 89 11 25  9 50 29.0800000  0  4G 2G 6G11G 9
  22549364.904    22549368.146     4715022.727 9   3142793.456 7
  20116197.748    20116199.429     -561464.149 9  -6555044.372 8
  21362024.557    21362027.812    -4208746.527 9  -9279375.312 9
  22588874.444    22588878.017    -5556543.159 7   -413126.027 7
 89 11 25  9 50 59.0800000  0  4G 2G 6G11G 9
  22564600.995    22564602.894     4795088.978 9   3205182.721 8
  20107219.287    20107222.536     -608647.127 9  -6591810.330 8
  21343951.267    21343955.461    -4303717.653 9  -9353378.796 8
  22572292.531    22572294.950    -5643691.010 8   -481033.376 8
 89 11 25  9 51 29.0800000  0  4G 2G 6G11G 9
  22579844.055    22579844.384     4875185.665 9   3267595.698 7
  20098276.714    20098279.911     -655635.096 9  -6628424.326 9
  21325942.436    21325946.911    -4398356.312 9  -9427123.169 8
  22555708.738    22555710.106    -5730840.435 7   -548941.954 9
 89 11 25  9 51 59.0800000  0  4G 2G 6G11G 9
  22595091.096    22595092.552     4955312.232 9   3330031.941 7
  20089372.864    20089375.465     -702426.388 9  -6664885.072 8
  21307997.400    21308002.018    -4492660.110 9  -9500606.645 9
  22539125.041    22539126.403    -5817990.364 9   -616850.954 7
 89 11 25  9 52 29.0800000  0  4G 2G 6G11G 9
  22610343.751    22610347.654     5035468.110 9   3392491.043 7
  20080507.352    20080508.455     -749019.200 9  -6701191.163 9
  21290115.952    21290119.495    -4586626.381 9  -9573827.096 9
  22522540.760    22522541.159    -5905139.805 9   -684759.625 7
 89 11 25  9 52 59.0800000  0  4G 2G 6G11G 9
  22625602.537    22625604.078     5115652.473 9   3454972.365 8
  20071678.748    20071681.420     -795411.734 9  -6737341.202 9
  21272300.300    21272303.795    -4680252.520 9  -9646782.521 9
  22505956.932    22505957.832    -5992287.796 9   -752667.139 8
 89 11 25  9 53 29.0800000  0  4G 2G 6G11G 9
  22640867.533    22640868.099     5195864.969 9   3517475.601 8
  20062889.942    20062891.588     -841602.124 9  -6773333.692 8
  21254548.377    21254551.628    -4773535.712 9  -9719470.707 8
  22489372.916    22489375.582    -6079432.982 9   -820572.475 7
 89 11 25  9 53 59.0800000  0  4G 2G 6G11G 9
  22656135.378    22656136.975     5276104.621 9   3579999.981 6
  20054138.155    20054140.217     -887588.633 9  -6809167.338 8
  21236864.116    21236867.149    -4866473.674 9  -9791889.882 8
  22472789.901    22472793.334    -6166574.415 8   -888474.863 9
 89 11 25  9 54 29.0800000  0  4G 2G 6G11G 9
  22671410.066    22671412.841     5356371.812 8   3642545.778 8
  20045426.494    20045428.975     -933369.150 9  -6844840.467 8
  21219243.843    21219248.528    -4959063.308 9  -9864037.641 8
  22456209.536    22456210.603    -6253710.601 9   -956373.105 8
 89 11 25  9 54 59.0800000  0  4G 2G 6G11G 9
  22686689.666    22686691.618     5436665.159 8   3705111.977 7
  20036754.973    20036756.510     -978942.024 9  -6880351.796 9
  21201691.482    21201695.299    -5051302.187 9  -9935912.090 8
  22439628.735    22439629.595    -6340840.546 9  -1024266.557 7
 89 11 25  9 55 29.0800000  0  4G 2G 6G11G 9
  22701972.379    22701974.236     5516984.282 8   3767698.281 8
  20028121.703    20028123.369    -1024305.373 9  -6915699.876 8
  21184206.549    21184209.749    -5143187.817 9 -10007511.280 8
  22423050.536    22423051.695    -6427962.842 9  -1092154.035 8
 89 11 25  9 55 59.0800000  0  4G 2G 6G11G 9
  22717262.132    22717264.799     5597327.962 8   3830303.699 7
  20019530.400    20019531.613    -1069457.347 9  -6950883.228 9
  21166788.979    21166791.959    -5234717.658 9 -10078833.217 8
  22406473.107    22406475.437    -6515076.757 9  -1160034.990 8
 89 11 25  9 56 29.0800000  0  4G 2G 6G11G 9
  22732556.149    22732557.651     5677696.864 8   3892928.777 8
  20010978.168    20010980.870    -1114395.854 9  -6985900.247 9
  21149439.254    21149442.644    -5325888.941 9 -10149875.758 8
  22389897.367    22389899.507    -6602180.510 9  -1227908.023 9
 89 11 25  9 56 59.0800000  0  4G 2G 6G11G 9
  22747855.186    22747856.332     5758089.459 8   3955572.320 8
  20002467.118    20002469.579    -1159119.467 9  -7020749.808 8
  21132158.965    21132162.936    -5416699.434 9 -10220637.165 9
  22373324.394    22373326.599    -6689273.281 9  -1295772.501 9
 89 11 25  9 57 29.0800000  0  4G 2G 6G11G 9
  22763156.757    22763159.339     5838504.822 9   4018233.595 9
  19993997.236    19994000.585    -1203626.633 9  -7055430.692 9
  21114947.113    21114950.648    -5507147.070 9 -10291115.817 9
  22356753.283    22356755.544    -6776354.150 9  -1363627.702 9
 89 11 25  9 57 59.0800000  0  4G 2G 6G11G 9
  22778463.439    22778467.007     5918942.538 9   4080912.277 8
  19985569.887    19985572.801    -1247915.056 9  -7089941.152 9
  21097805.463    21097808.477    -5597228.487 9 -10361309.117 9
  22340184.612    22340187.104    -6863421.622 9  -1431472.454 8
 89 11 25  9 58 29.0800000  0  4G 2G 6G11G 9
  22793774.187    22793777.472     5999402.632 9   4143608.415 9
  19977184.496    19977186.380    -1291982.628 9  -7124279.517 8
  21080733.534    21080737.078    -5686941.327 9 -10431215.202 8
  22323619.324    22323622.154    -6950474.123 9  -1499305.552 8
 89 11 25  9 58 59.0800000  0  4G 2G 6G11G 9
  22809090.641    22809092.932     6079884.288 9   4206321.363 9
  19968841.385    19968843.080    -1335827.471 9  -7158444.317 7
  21063731.919    21063736.203    -5776283.035 9 -10500832.096 9
  22307056.623    22307059.468    -7037510.357 7  -1567125.955 8
 89 11 25  9 59 29.0800000  0  4G 2G 6G11G 9
  22824409.262    22824411.543     6160387.637 9   4269051.212 8
  19960540.431    19960544.372    -1379447.759 9  -7192434.155 8
  21046802.278    21046805.624    -5865251.009 9 -10570157.768 9
  22290498.618    22290499.135    -7124529.109 8  -1634932.743 9
 89 11 25  9 59 59.0800000  0  4G 2G 6G11G 9
  22839732.844    22839735.608     6240911.402 9   4331796.947 9
  19952282.538    19952285.202    -1422841.777 9  -7226247.680 8
  21029943.268    21029947.857    -5953843.365 9 -10639190.744 9
  22273941.284    22273944.963    -7211529.426 8  -1702725.180 8
 89 11 25 10  0 29.0800000  0  4G 2G 6G11G 9
  22855060.089    22855062.187     6321456.040 9   4394558.963 9
  19944068.611    19944072.013    -1466007.296 9  -7259883.143 8
  21013157.750    21013160.369    -6042056.840 9 -10707928.501 8
  22257390.451    22257392.321    -7298509.351 8  -1770501.741 8
 89 11 25 10  0 59.0800000  0  4G 2G 6G11G 9
  22870391.161    22870393.049     6402020.320 9   4457336.287 8
  19935897.685    19935900.705    -1508942.535 8  -7293339.166 8
  20996442.610    20996446.458    -6129889.314 9 -10776369.362 9
  22240840.795    22240843.207    -7385468.268 8  -1838261.890 8
 89 11 25 10  1 29.0800000  0  4G 2G 6G11G 9
  22885724.404    22885728.558     6482603.254 9   4520128.133 8
  19927772.219    19927774.187    -1551645.648 9  -7326614.312 8
  20979802.817    20979804.832    -6217338.424 9 -10844511.494 8
  22224299.465    22224302.006    -7472404.414 8  -1906004.301 8
 89 11 25 10  1 59.0800000  0  4G 2G 6G11G 9
  22901063.325    22901065.729     6563205.275 9   4582934.885 8
  19919690.804    19919692.442    -1594114.409 8  -7359706.853 8
  20963234.039    20963238.363    -6304401.282 9 -10912352.671 8
  22207761.385    22207762.140    -7559316.367 8  -1973727.859 8
 89 11 25 10  2 29.0800000  0  4G 2G 6G11G 9
  22916404.999    22916406.987     6643825.265 9   4645755.646 8
  19911654.197    19911656.506    -1636347.036 9  -7392615.382 8
  20946740.863    20946745.034    -6391076.025 9 -10979891.413 9
  22191227.089    22191228.168    -7646202.886 8  -2041431.625 7
 89 11 25 10  2 59.0800000  0  4G 2G 6G11G 9
  22931749.105    22931751.886     6724463.160 9   4708590.333 9
  19903662.693    19903665.359    -1678341.665 9  -7425338.472 8
  20930322.165    20930325.617    -6477359.912 9 -11047125.597 9
  22174697.463    22174699.397    -7733062.511 9  -2109114.447 8
 89 11 25 10  3 29.0800000  0  4G 2G 6G11G 9
  22947097.920    22947100.747     6805118.152 9   4771438.357 9
  19895717.368    19895719.276    -1720096.150 8  -7457874.426 8
  20913977.576    20913980.931    -6563250.580 9 -11114053.379 9
  22158174.396    22158174.814    -7819893.936 8  -2176775.285 8
 89 11 25 10  3 59.0800000  0  4G 2G 6G11G 9
  22962449.268    22962452.168     6885789.845 9   4834299.386 9
  19887816.632    19887819.542    -1761608.508 8  -7490221.730 8
  20897708.170    20897711.504    -6648745.608 9 -11180672.868 9
  22141656.089    22141658.945    -7906695.700 9  -2244413.015 8
 89 11 25 10  4 29.0800000  0  4G 2G 6G11G 9
  22977803.101    22977806.170     6966477.359 9   4897172.749 8
  19879963.656    19879966.781    -1802877.121 9  -7522379.077 8
  20881514.611    20881518.391    -6733842.674 9 -11246982.247 9
  22125143.833    22125146.995    -7993466.504 9  -2312026.593 8
 89 11 25 10  4 59.0800000  0  4G 2G 6G11G 9
  22993161.414    22993162.239     7047181.062 8   4960058.718 9
  19872157.400    19872159.853    -1843899.650 9  -7554344.684 8
  20865397.115    20865400.644    -6818539.192 9 -11312979.528 9
  22108639.542    22108638.357    -8080204.785 9  -2379614.848 8
 89 11 25 10  5 29.0800000  0  4G 2G 6G11G 9
  23008521.493    23008524.037     7127900.030 9   5022956.584 8
  19864399.312    19864401.511    -1884674.764 9  -7586117.501 8
  20849356.118    20849359.877    -6902833.377 9 -11378663.293 9
  22092139.247    22092141.271    -8166909.533 9  -2447176.988 7
 89 11 25 10  5 59.0800000  0  4G 2G 6G11G 9
  23023884.224    23023887.300     7208633.869 8   5085866.041 7
  19856686.032    19856688.619    -1925200.208 9  -7617695.767 9
  20833392.555    20833396.207    -6986722.852 9 -11444031.704 8
  22075646.700    22075647.477    -8253579.183 9  -2514711.768 8
 89 11 25 10  6 29.0800000  0  4G 2G 6G11G 9
  23039250.679    23039252.844     7289381.921 7   5148786.555 7
  19849023.517    19849025.680    -1965474.102 9  -7649078.011 8
  20817506.881    20817509.681    -7070205.073 9 -11509082.766 8
  22059160.566    22059162.149    -8340212.381 9  -2582218.148 7
 89 11 25 10  6 59.0800000  0  4G 2G 6G11G 9
  23054618.240    23054621.668     7370144.121 6   5211718.082 6
  19841405.957    19841409.241    -2005494.188 9  -7680262.499 8
  20801698.499    20801701.740    -7153277.543 9 -11573814.547 9
  22042682.913    22042683.105    -8426807.404 9  -2649694.758 7
 89 11 25 10  7 29.0800000  0  4G 2G 6G11G 9
  23069989.254    23069991.974     7450919.764 7   5274660.109 7
  19833840.381    19833842.533    -2045258.815 9  -7711247.916 8
  20785968.411    20785972.704    -7235938.116 9 -11638225.380 8
  22026211.348    22026212.990    -8513362.841 9  -2717140.546 7
 89 11 25 10  7 59.0800000  0  4G 2G 6G11G 9
  23085362.066    23085365.319     7531708.192 7   5337612.068 7
  19826322.457    19826323.207    -2084766.165 9  -7742032.859 7
  20770317.467    20770321.111    -7318185.141 9 -11702313.951 8
  22009748.453    22009750.067    -8599877.501 9  -2784554.556 7
 89 11 25 10  8 29.0800000  0  4G 2G 6G11G 9
  23100738.477    23100742.575     7612509.843 8   5400574.321 7
  19818854.245    19818856.216    -2124013.746 9  -7772615.408 8
  20754745.252    20754749.649    -7400015.894 9 -11766078.158 9
  21993292.927    21993294.890    -8686349.481 9  -2851935.298 8
 89 11 25 10  8 59.0800000  0  4G 2G 6G11G 9
  23116116.769    23116120.636     7693323.682 8   5463546.088 8
  19811436.431    19811436.713    -2162999.606 9  -7802993.997 9
  20739253.100    20739256.878    -7481427.864 9 -11829516.039 8
  21976845.903    21976847.902    -8772777.352 9  -2919281.642 8
 89 11 25 10  9 29.0800000  0  4G 2G 6G11G 9
  23131497.265    23131500.944     7774149.162 9   5526526.907 8
  19804067.559    19804066.844    -2201721.955 9  -7833167.239 7
  20723840.496    20723844.527    -7562418.983 9 -11892625.975 9
  21960407.832    21960409.775    -8859159.861 9  -2986592.662 7
 89 11 25 10  9 59.0800000  0  4G 2G 6G11G 9
  23146880.714    23146884.431     7854986.262 9   5589516.845 7
  19796748.976    19796750.870    -2240178.463 9  -7863133.360 8
  20708509.557    20708514.059    -7642986.784 9 -11955406.062 9
  21943979.055    21943980.566    -8945494.848 8  -3053866.663 9
 89 11 25 10 10 29.0800000  0  4G 2G 6G11G 9
  23162267.188    23162268.051     7935834.649 9   5652515.566 8
  19789482.118    19789482.491    -2278367.355 9  -7892890.945 7
  20693259.192    20693262.819    -7723129.284 9 -12017854.737 9
  21927558.833    21927561.887    -9031781.282 9  -3121102.820 8
 89 11 25 10 10 59.0800000  0  4G 2G 6G11G 9
  23177653.175    23177656.015     8016694.025 9   5715522.850 8
  19782267.095    19782268.627    -2316286.281 9  -7922438.158 9
  20678090.345    20678093.721    -7802844.162 9 -12079970.207 9
  21911148.724    21911151.826    -9118017.082 9  -3188299.537 8
 89 11 25 10 11 29.0800000  0  4G 2G 6G11G 9
  23193041.992    23193044.714     8097564.279 8   5778538.599 8
  19775101.645    19775104.370    -2353933.306 9  -7951773.507 9
  20663003.048    20663006.700    -7882129.067 9 -12141750.624 8
  21894750.567    21894750.113    -9204200.706 8  -3255455.587 8
 89 11 25 10 11 59.0800000  0  4G 2G 6G11G 9
  23208434.290    23208436.116     8178444.359 9   5841562.004 8
  19767990.546    19767991.859    -2391306.575 9  -7980895.517 8
  20647997.623    20648000.749    -7960982.120 9 -12203194.543 8
  21878358.915    21878361.184    -9290330.843 9  -3322569.979 8
 89 11 25 10 12 29.0800000  0  4G 2G 6G11G 9
  23223826.510    23223829.587     8259334.172 9   5904592.996 8
  19760930.197    19760931.868    -2428404.146 9  -8009802.699 8
  20633074.843    20633077.721    -8039401.075 9 -12264300.211 8
  21861977.447    21861981.640    -9376406.123 9  -3389641.603 9
 89 11 25 10 12 59.0800000  0  4G 2G 6G11G 9
  23239220.951    23239223.769     8340233.420 9   5967631.337 9
  19753923.539    19753926.045    -2465223.914 9  -8038493.426 8
  20618235.019    20618238.326    -8117383.633 9 -12325065.823 8
  21845611.324    21845611.735    -9462424.648 9  -3456668.968 8
 89 11 25 10 13 29.0800000  0  4G 2G 6G11G 9
  23254617.852    23254619.795     8421141.963 9   6030676.917 8
  19746969.769    19746972.927    -2501763.988 9  -8066966.212 8
  20603478.085    20603482.929    -8194928.137 9 -12385490.107 8
  21829252.462    21829255.450    -9548384.898 8  -3523650.962 8
 89 11 25 10 13 59.0800000  0  4G 2G 6G11G 9
  23270015.725    23270018.789     8502059.298 9   6093729.358 9
  19740070.506    19740072.915    -2538022.061 9  -8095219.265 9
  20588806.640    20588809.970    -8272031.963 9 -12445570.997 9
  21812906.673    21812908.003    -9634285.214 9  -3590586.257 8
 89 11 25 10 14 29.0800000  0  4G 2G 6G11G 9
  23285415.401    23285417.349     8582984.552 9   6156787.960 8
  19733225.477    19733227.452    -2573996.240 9  -8123251.089 7
  20574217.874    20574222.396    -8348693.200 9 -12505307.017 9
  21796572.244    21796574.327    -9720123.782 9  -3657473.446 8
 89 11 25 10 14 59.0800000  0  4G 2G 6G11G 9
  23300816.453    23300818.843     8663917.479 9   6219852.552 9
  19726434.080    19726435.974    -2609684.746 9  -8151060.311 8
  20559714.453    20559717.548    -8424910.157 9 -12564696.830 9
  21780248.669    21780250.784    -9805899.281 9  -3724311.494 8
 89 11 25 10 15 29.0800000  0  4G 2G 6G11G 9
  23316219.136    23316221.315     8744857.818 9   6282922.908 8
  19719697.428    19719699.877    -2645085.651 9  -8178645.436 8
  20545295.857    20545299.971    -8500680.709 9 -12623738.796 9
  21763940.238    21763940.846    -9891610.368 8  -3791099.338 9
 89 11 25 10 15 59.0800000  0  4G 2G 6G11G 9
  23331622.411    23331625.592     8825805.476 9   6345998.969 9
  19713016.151    19713018.758    -2680196.673 8  -8206004.668 8
  20530962.602    20530966.435    -8576002.676 9 -12682431.230 9
  21747641.066    21747643.176    -9977254.847 9  -3857835.293 9
 89 11 25 10 16 29.0800000  0  4G 2G 6G11G 9
  23347028.021    23347031.093     8906759.893 8   6409080.291 8
  19706389.728    19706393.283    -2715015.585 9  -8233136.295 9
  20516715.317    20516718.147    -8650874.026 9 -12740772.524 9
  21731356.703    21731359.032   -10062830.924 9  -3924517.930 9
 89 11 25 10 16 59.0800000  0  4G 2G 6G11G 9
  23362433.571    23362436.931     8987720.635 7   6472166.571 8
  19699819.968    19699822.511    -2749540.569 9  -8260038.866 8
  20502553.946    20502557.309    -8725292.716 9 -12798761.077 8
  21715085.701    21715086.763   -10148337.129 8  -3991146.130 8
 89 11 25 10 17 29.0800000  0  4G 2G 6G11G 9
  23377840.643    23377844.608     9068688.017 8   6535257.966 9
  19693306.450    19693308.641    -2783769.487 8  -8286710.733 8
  20488478.915    20488481.975    -8799256.967 9 -12856395.551 8
  21698828.103    21698829.863   -10233771.676 9  -4057718.507 8
 89 11 25 10 17 59.0800000  0  4G 2G 6G11G 9
  23393250.443    23393253.068     9149661.421 7   6598354.061 9
  19686849.308    19686852.777    -2817700.343 9  -8313150.378 8
  20474490.718    20474493.850    -8872764.698 9 -12913674.279 8
  21682584.410    21682585.234   -10319132.800 9  -4124233.663 7
 89 11 25 10 18 29.0800000  0  4G 2G 6G11G 9
  23408660.055    23408663.067     9230641.129 7   6661455.063 9
  19680449.768    19680452.577    -2851330.821 9  -8339355.931 8
  20460589.077    20460593.469    -8945813.720 9 -12970595.557 9
  21666354.963    21666357.819   -10404418.686 9  -4190690.184 8
 89 11 25 10 18 59.0800000  0  4G 2G 6G11G 9
  23424070.253    23424073.926     9311625.681 6   6724559.859 8
  19674107.532    19674110.384    -2884658.927 8  -8365325.875 8
  20446777.264    20446780.296    -9018402.001 9 -13027157.848 9
  21650140.591    21650142.134   -10489627.502 8  -4257086.634 7
 89 11 25 10 19 29.0800000  0  4G 2G 6G11G 9
  23439481.423    23439485.902     9392615.608 7   6787668.824 8
  19667823.481    19667825.423    -2917682.901 8  -8391058.836 8
  20433051.163    20433054.728    -9090527.791 9 -13083359.755 8
  21633939.701    21633942.303   -10574757.769 9  -4323421.912 7
 89 11 25 10 19 59.0800000  0  4G 2G 6G11G 9
  23454894.723    23454899.093     9473610.176 8   6850781.411 8
  19661598.251    19661599.943    -2950400.551 9  -8416553.089 9
  20419415.725    20419417.691    -9162189.175 9 -13139199.776 9
  21617756.516    21617758.714   -10659807.485 9  -4389694.416 8
 89 11 25 10 20 29.0800000  0  4G 2G 6G11G 9
  23470310.089    23470312.892     9554609.413 8   6913897.652 8
  19655430.120    19655432.652    -2982810.012 9  -8441807.211 8
  20405866.978    20405870.813    -9233384.822 9 -13194676.892 9
  21601587.101    21601589.082   -10744775.262 8  -4455903.055 9
 89 11 25 10 20 59.0800000  0  4G 2G 6G11G 9
  23485723.093    23485727.139     9635613.253 8   6977017.518 8
  19649322.121    19649325.325    -3014908.972 9  -8466819.383 9
  20392408.064    20392410.685    -9304112.452 9 -13249789.305 8
  21585434.505    21585435.961   -10829658.917 9  -4522046.109 8
 89 11 25 10 21 29.0800000  0  4G 2G 6G11G 9
  23501138.307    23501142.528     9716620.459 8   7040139.979 7
  19643276.104    19643278.083    -3046695.589 1  -8491588.120 1
  20379038.919    20379041.023    -9374370.182 9 -13304535.553 8
  21569297.978    21569299.259   -10914456.540 8  -4588122.184 8
 89 11 25 10 21 59.0800000  0  4G 2G 6G11G 9
  23516554.451    23516557.052     9797631.393 9   7103265.365 6
  19637285.002    19637286.619    -3078167.709 7  -8516111.894 7
  20365757.378    20365761.851    -9444156.171 6 -13358914.231 4
                                 -11008700.198 1  -4653843.062 1
 89 11 25 10 22 29.0800000  0  4G 2G 6G11G 9
  23531971.678    23531973.527     9878646.120 9   7166393.704 6
  19631355.555    19631358.587    -3109323.297 8  -8540388.988 8
  20352568.942    20352572.601    -9513468.541 9 -13412923.856 7
  21537075.502    21537078.334   -20968598.378 8  26501277.720 8
 89 11 25 10 22 59.0800000  0  4G 2G 6G11G 9
  23547389.119    23547391.731     9959663.926 9   7229524.449 5
  19625488.736    19625491.048    -3140160.352 9  -8564417.864 8
  20339470.373    20339472.181    -9582305.795 9 -13466563.257 8
  21520989.867    21520991.999   -21053127.846 9  26435410.640 8
 89 11 25 10 23 29.0800000  0  4G 2G 6G11G 9
  23562806.690    23562810.664    10040684.676 9   7292657.506 5
  19619680.403    19619682.316    -3170676.894 9  -8588196.984 8
  20326461.195    20326464.270    -9650665.841 9 -13519830.824 8
  21504922.816    21504923.917   -21137564.173 9  26369616.123 9
 89 11 25 10 23 59.0800000  0  4G 2G 6G11G 9
  23578224.219    23578226.937    10121707.681 9   7355792.332 4
  19613935.691    19613936.591    -3200871.004 9  -8611724.857 9
  20313543.479    20313546.116    -9718547.132 9 -13572725.326 8
  21488873.102    21488873.360   -21221905.646 9  26303895.489 8
 89 11 25 10 24 29.0800000  0  4G 2G 6G11G 9
  23593644.068    23593647.690    10202733.493 9   7418929.360 6
  19608251.800    19608252.968    -3230740.121 9  -8634999.510 7
  20300717.521    20300720.804    -9785947.657 9 -13625245.216 8
  21472841.701    21472843.121   -21306150.034 9  26238250.511 8
 89 11 25 10 24 59.0800000  0  4G 2G 6G11G 9
  23609062.871    23609064.696    10283761.345 9   7482067.943 7
  19602629.042    19602631.040    -3260282.662 9  -8658019.690 8
  20287983.737    20287987.341    -9852866.139 9 -13677389.478 8
  21456829.456    21456831.096   -21390295.916 9  26172682.313 8
 89 11 25 10 25 29.0800000  0  4G 2G 6G11G 9
  23624481.885    23624484.762    10364791.395 9   7545208.249 6
  19597070.550    19597072.286    -3289496.369 9  -8680783.618 8
  20275341.439    20275345.401    -9919300.599 9 -13729156.566 8
  21440836.005    21440836.449   -21474340.996 9  26107192.657 8
 89 11 25 10 25 59.0800000  0  4G 2G 6G11G 9
  23639901.835    23639905.266    10445823.501 9   7608350.121 8
  19591574.878    19591575.111    -3318378.921 8  -8703289.478 7
  20262791.103    20262794.301    -9985249.021 9 -13780544.923 9
  21424861.991    21424863.111   -21558283.147 9  26041783.188 8
 89 11 25 10 26 29.0800000  0  4G 2G 6G11G 9
  23655322.084    23655324.337    10526857.584 9   7671493.576 8
  19586141.034    19586143.522    -3346928.679 8  -8725536.049 9
  20250334.978    20250337.675   -10050710.327 9 -13831553.715 8
  21408907.816    21408909.860   -21642120.968 9  25976455.015 9
 89 11 25 10 26 59.0800000  0  4G 2G 6G11G 9
  23670743.053    23670745.373    10607892.624 9   7734637.781 8
  19580772.772    19580775.070    -3375143.513 9  -8747521.616 7
  20237971.826    20237974.329   -10115682.955 9 -13882181.718 7
  21392975.561    21392975.935   -21725852.408 9  25911209.742 8
 89 11 25 10 27 29.0800000  0  4G 2G 6G11G 9
  23686163.516    23686166.621    10688928.726 9   7797782.760 8
  19575467.442    19575468.541    -3403021.562 9  -8769244.735 8
  20225700.342    20225703.988   -10180165.057 9 -13932427.492 8
  21377061.850    21377064.093   -21809475.715 9  25846048.715 8
 89 11 25 10 27 59.0800000  0  4G 2G 6G11G 9
  23701584.688    23701587.543    10769965.583 9   7860928.328 8
  19570227.455    19570228.165    -3430560.636 9  -8790703.726 7
  20213523.121    20213527.118   -10244154.959 9 -13982289.737 8
  21361169.115    21361171.245   -21892988.635 9  25780973.705 8
 89 11 25 10 28 29.0800000  0  4G 2G 6G11G 9
  23717005.215    23717008.776    10851003.671 8   7924074.842 9
  19565050.935    19565053.436    -3457758.586 9  -8811896.935 8
  20201440.733    20201444.889   -10307650.969 9 -14031767.145 8
  21345299.704    21345300.516   -21976389.121 9  25715986.308 9
 89 11 25 10 28 59.0800000  0  4G 2G 6G11G 9
  23732425.145    23732429.421    10932041.878 8   7987221.418 9
  19559940.426    19559943.621    -3484613.482 9  -8832822.849 8
  20189450.724    20189454.660   -10370651.752 9 -14080858.641 8
  21329450.416    21329452.505   -22059675.270 9  25651087.992 8
 89 11 25 10 29 29.0800000  0  4G 2G 6G11G 9
  23747847.129    23747851.036    11013080.473 7   8050368.302 8
  19554894.799    19554897.983    -3511123.521 9  -8853480.044 8
  20177557.729    20177561.124   -10433156.039 9 -14129563.266 9
  21313623.079    21313624.366   -22142845.409 9  25586280.117 8
 89 11 25 10 29 59.0800000  0  4G 2G 6G11G 9
  23763267.166    23763271.806    11094119.054 6   8113515.197 9
  19549916.736    19549918.344    -3537286.336 9  -8873866.694 9
  20165758.501    20165762.479   -10495161.921 9 -14177879.514 9
  21297819.212    21297822.034   -22225897.125 9  25521564.508 8
 89 11 25 10 30 29.0800000  0  4G 2G 6G11G 9
  23778690.526    23778692.914    11175158.208 3   8176662.493 8
  19545005.295    19545007.132    -3563099.982 9  -8893981.223 8
  20154054.656    20154056.700   -10556667.987 9 -14225806.284 9
  21282038.061    21282039.136   -22308828.559 9  25456942.601 8
 89 11 25 10 30 59.0800000  0  4G 2G 6G11G 9
  23794109.167    23794114.888    11256196.914 3   8239809.432 9
  19540159.244    19540161.771    -3588562.485 9  -8913822.144 8
  20142446.327    20142448.865   -10617672.856 9 -14273342.532 8
  21266280.301    21266281.564   -22391637.973 9  25392415.793 8
 89 11 25 10 31 29.0800000  0  4G 2G 6G11G 9
  23809530.395    23809535.392    11337234.900 4   8302955.818 9
  19535381.893    19535382.373    -3613671.920 9  -8933387.921 8
  20130932.339    20130936.135   -10678174.953 9 -14320487.003 8
  21250545.807    21250547.910   -22474323.157 9  25327985.786 8
 89 11 25 10 31 59.0800000  0  4G 2G 6G11G 9
  23824954.029    23824956.690    11418272.667 6   8366102.049 9
  19530671.366    19530671.147    -3638426.208 9  -8952676.967 8
  20119514.909    20119516.779   -10738172.657 9 -14367238.440 8
  21234835.496    21234836.094   -22556882.068 9  25263654.183 8
 89 11 25 10 32 29.0800000  0  4G 2G 6G11G 9
  23840373.874    23840377.834    11499309.353 8   8429247.487 9
  19526028.303    19526029.688    -3662823.425 9  -8971687.789 9
  20108194.107    20108196.395   -10797665.035 9 -14413596.118 9
  21219148.420    21219150.244   -22639312.683 9  25199422.557 8
 89 11 25 10 32 59.0800000  0  4G 2G 6G11G 9
  23855795.070    23855798.703    11580345.330 9   8492392.382 9
  19521454.115    19521455.941    -3686861.061 8  -8990418.393 8
  20096969.652    20096973.436   -10856649.992 9 -14459558.399 8
  21203487.371    21203489.574   -22721612.618 9  25135292.750 8
 89 11 25 10 33 29.0800000  0  4G 2G 6G11G 9
  23871215.127    23871218.895    11661380.290 9   8555536.467 9
  19516948.279    19516950.852    -3710537.194 8  -9008867.335 8
  20085840.773    20085845.580   -10915126.504 9 -14505124.499 8
  21187852.323    21187853.501   -22803779.738 9  25071266.427 9
 89 11 25 10 33 59.0800000  0  4G 2G 6G11G 9
  23886635.398    23886638.780    11742414.413 9   8618679.887 9
  19512512.721    19512514.955    -3733850.193 9  -9027033.293 8
  20074811.398    20074814.645   -10973093.502 9 -14550293.583 9
  21172241.384    21172243.530   -22885812.330 9  25007344.958 8
 89 11 25 10 34 29.0800000  0  4G 2G 6G11G 9
  23902055.601    23902059.679    11823447.262 9   8681822.320 9
  19508145.451    19508148.284    -3756797.860 9  -9044914.596 8
  20063878.133    20063881.445   -11030549.085 9 -14595064.163 8
  21156657.309    21156658.322   -22967708.069 9  24943530.113 9
 89 11 25 10 34 59.0800000  0  4G 2G 6G11G 9
  23917475.424    23917479.024    11904479.020 9   8744963.916 8
  19503849.212    19503850.217    -3779378.074 9  -9062509.550 8
  20053040.794    20053044.448   -11087492.335 9 -14639435.508 8
  21141099.971    21141100.216   -23049464.952 9  24879823.469 8
 89 11 25 10 35 29.0800000  0  4G 2G 6G11G 9
  23932895.097    23932897.571    11985509.081 9   8808104.203 8
  19499622.431    19499623.659    -3801588.999 9  -9079816.767 8
  20042303.603    20042306.823   -11143921.895 9 -14683406.584 8
  21125569.161    21125570.266   -23131080.781 9  24816226.729 8
 89 11 25 10 35 59.0800000  0  4G 2G 6G11G 9
  23948314.572    23948317.670    12066537.198 9   8871242.972 8
  19495466.461    19495467.963    -3823428.727 8  -9096834.748 7
  20031663.464    20031666.322   -11199836.641 9 -14726976.510 8
  21110064.542    21110066.759   -23212553.641 9  24752741.400 9
 89 11 25 10 36 29.0800000  0  4G 2G 6G11G 9
  23963732.997    23963737.296    12147563.837 9   8934380.562 8
  19491381.693    19491383.260    -3844894.812 9  -9113561.563 8
  20021121.714    20021124.979   -11255234.837 9 -14770143.936 8
  21094588.743    21094591.283   -23293880.984 9  24689369.462 8
 89 11 25 10 36 59.0800000  0  4G 2G 6G11G 9
  23979150.941    23979155.154    12228588.380 9   8997516.560 8
  19487368.364    19487370.289    -3865985.624 9  -9129995.980 7
  20010677.550    20010680.448   -11310115.518 9 -14812908.096 8
  21079140.837    21079142.199   -23375060.891 9  24626112.418 8
 89 11 25 10 37 29.0800000  0  4G 2G 6G11G 9
  23994569.755    23994573.517    12309610.811 9   9060650.895 7
  19483426.248    19483427.993    -3886699.320 9  -9146136.517 8
  20000332.649    20000336.846   -11364477.603 9 -14855268.152 8
  21063720.616    21063722.363   -23456091.531 9  24562971.669 8
 89 11 25 10 37 59.0800000  0  4G 2G 6G11G 9
  24009987.774    24009990.932    12390630.959 9   9123783.460 7
  19479557.139    19479556.990    -3907033.847 8  -9161981.593 8
  19990086.827    19990091.350   -11418320.005 9 -14897223.246 8
  21048330.617    21048331.463   -23536970.672 9  24499948.987 9
 89 11 25 10 38 29.0800000  0  4G 2G 6G11G 9
  24025404.108    24025406.486    12471648.493 9   9186913.987 6
  19475759.464    19475762.755    -3926987.343 7  -9177529.766 8
  19979940.045    19979943.706   -11471641.667 9 -14938772.573 9
  21032968.344    21032970.222   -23617695.901 9  24437046.220 9
 89 11 25 10 38 59.0800000  0  4G 2G 6G11G 9
  24040820.811    24040826.370    12552663.776 9   9250042.802 5
  19472034.999    19472036.457    -3946557.542 9  -9192779.288 8
  19969893.227    19969895.720   -11524441.243 9 -14979915.076 8
  21017636.893    21017638.155   -23698264.898 8  24374265.207 9
 89 11 25 10 39 29.0800000  0  4G 2G 6G11G 9
  24056236.600    24056241.613    12633676.251 9   9313169.443 3
  19468384.714    19468385.479    -3965742.724 9  -9207728.764 8
  19959945.462    19959948.451   -11576717.487 9 -15020649.801 8
  21002334.962    21002336.293   -23778675.709 9  24311607.443 9
 89 11 25 10 39 59.0800000  0  4G 2G 6G11G 9
  24071653.151    24071656.786    12714686.475 9   9376294.322 5
  19464808.130    19464809.348    -3984540.608 9  -9222376.498 7
  19950097.664    19950100.409   -11628468.730 9 -15060975.426 8
  20987063.873    20987064.847   -23858925.919 9  24249074.822 9
 89 11 25 10 40 29.0800000  0  4G 2G 6G11G 9
  24087067.905    24087071.614    12795694.044 9   9439417.112 6
  19461304.538    19461306.484    -4002949.475 9  -9236721.066 7
  19940349.015    19940352.693   -11679694.450 9 -15100891.563 8
  20971823.517    20971825.712   -23939013.199 8  24186669.158 8
 89 11 25 10 40 59.0800000  0  4G 2G 6G11G 9
  24102482.918    24102485.705    12876699.232 8   9502538.030 6
  19457876.168    19457877.407    -4020967.355 8  -9250760.979 9
  19930700.874    19930705.065   -11730393.659 9 -15140397.428 8
  20956615.490    20956616.646   -24018935.589 9  24124391.972 8
 89 11 25 10 41 29.0800000  0  4G 2G 6G11G 9
  24117897.251    24117900.763    12957701.839 7   9565656.902 6
  19454522.466    19454523.495    -4038592.264 9  -9264494.685 8
  19921153.386    19921157.126   -11780565.087 9 -15179492.029 7
  20941437.237    20941440.171   -24098690.790 9  24062245.056 9
 89 11 25 10 41 59.0800000  0  4G 2G 6G11G 9
  24133309.982    24133313.675    13038701.417 6   9628773.413 7
  19451243.062    19451245.233    -4055822.285 9  -9277920.690 8
  19911707.603    19911710.292   -11830207.486 9 -15218174.403 8
  20926293.714    20926294.981   -24178276.593 8  24000230.178 9
 89 11 25 10 42 29.0800000  0  4G 2G 6G11G 9
  24148723.945    24148728.833    13119698.217 6   9691887.742 8
  19448040.148    19448041.133    -4072655.155 9  -9291037.206 7
  19902362.949    19902364.150   -11879320.169 9 -15256444.016 7
  20911182.487    20911182.701   -24257690.275 9  23938349.384 9
 89 11 25 10 42 59.0800000  0  4G 2G 6G11G 9
  24164136.430    24164139.331    13200691.983 6   9754999.750 7
  19444913.535    19444913.770    -4089089.412 9  -9303843.101 8
  19893116.469    19893120.728   -11927902.654 9 -15294300.488 7
  20896102.264    20896104.281   -24336930.124 9  23876604.038 8
 89 11 25 10 43 29.0800000  0  4G 2G 6G11G 9
  24179550.457    24179552.110    13281682.899 6   9818109.496 8
  19441861.894    19441863.533    -4105122.981 9  -9316336.805 7
  19883973.751    19883976.931   -11975953.506 9 -15331742.709 8
  20881057.158    20881058.789   -24415993.620 9  23814996.141 8
 89 11 25 10 43 59.0800000  0  4G 2G 6G11G 9
  24194958.773    24194963.212    13362670.510 6   9881216.665 8
  19438886.774    19438888.056    -4120754.059 9  -9328516.855 8
  19874930.369    19874932.500   -12023471.982 9 -15368770.073 8
  20866046.762    20866046.834   -24494878.713 9  23753527.231 7
 89 11 25 10 44 29.0800000  0  4G 2G 6G11G 9
  24210370.852    24210374.706    13443654.548 6   9944321.065 7
  19435989.689    19435991.106    -4135980.941 9  -9340381.949 7
  19865989.521    19865992.954   -12070457.349 9 -15405382.026 8
  20851068.852    20851070.912   -24573583.004 9  23692199.199 9
 89 11 25 10 44 59.0800000  0  4G 2G 6G11G 9
  24225781.054    24225784.749    13524635.385 7  10007422.979 8
  19433169.395    19433170.760    -4150801.682 9  -9351930.578 7
  19857150.670    19857152.511   -12116908.209 9 -15441577.485 7
  20836126.861    20836128.636   -24652104.538 9  23631013.615 9
 89 11 25 10 45 29.0800000  0  4G 2G 6G11G 9
  24241190.983    24241194.330    13605613.311 8  10070522.655 8
  19430425.250    19430428.206    -4165214.167 9  -9363161.117 7
  19848411.993    19848414.257   -12162823.810 9 -15477355.858 8
  20821220.300    20821221.867   -24730440.615 9  23569972.522 9
 89 11 25 10 45 59.0800000  0  4G 2G 6G11G 9
  24256599.722    24256603.029    13686587.674 7  10133619.544 8
  19427762.129    19427761.945    -4179216.905 9  -9374072.339 7
  19839776.559    19839780.433   -12208203.970 9 -15512717.021 7
  20806349.138    20806351.170   -24808589.222 9  23509077.499 8
 89 11 25 10 46 29.0800000  0  4G 2G 6G11G 9
  24272009.047    24272011.952    13767558.651 9  10196713.754 9
  19425174.840    19425177.711    -4192807.970 8  -9384662.785 7
  19831243.833    19831246.075   -12253047.333 9 -15547659.873 7
  20791513.983    20791515.483   -24886547.905 9  23448330.483 8
 89 11 25 10 46 59.0800000  0  4G 2G 6G11G 9
  24287415.255    24287418.610    13848526.034 9  10259805.170 8
  19422668.937    19422668.977    -4205985.343 9  -9394930.893 7
  19822813.128    19822814.567   -12297353.043 9 -15582183.803 7
  20776715.116    20776715.846   -24964314.148 9  23387733.410 7
 89 11 25 10 47 29.0800000  0  4G 2G 6G11G 9
  24302823.158    24302826.092    13929490.352 9  10322894.281 9
  19420240.637    19420241.390    -4218747.078 8  -9404875.127 8
  19814484.232    19814487.119   -12341120.689 9 -15616288.451 8
  20761954.114    20761955.547   -25041885.603 9  23327288.145 7
 89 11 25 10 47 59.0800000  0  4G 2G 6G11G 9
  24318228.349    24318233.011    14010451.229 9  10385980.650 9
  19417890.654    19417891.807    -4231091.527 9  -9414494.181 7
  19806257.765    19806259.032   -12384349.355 9 -15649973.125 7
  20747230.259    20747231.183   -25119260.278 9  23266996.176 8
 89 11 25 10 48 29.0800000  0  4G 2G 6G11G 9
  24333634.713    24333638.136    14091408.465 9  10449064.171 9
  19415621.069    19415622.556    -4243016.726 8  -9423786.524 7
  19798134.832    19798137.079   -12427038.432 9 -15683237.328 8
  20732544.349    20732545.495   -25196435.606 9  23206859.577 8
 89 11 25 10 48 59.0800000  0  4G 2G 6G11G 9
  24349040.044    24349043.859    14172361.916 9  10512144.765 9
  19413432.104    19413434.147    -4254520.779 9  -9432750.720 8
  19790113.860    19790116.377   -12469186.911 9 -15716080.283 7
  20717898.164    20717897.724   -25273409.043 9  23146880.308 9
 89 11 25 10 49 29.0800000  0  4G 2G 6G11G 9
  24364444.440    24364448.168    14253312.079 9  10575222.838 9
  19411324.199    19411324.701    -4265601.983 8  -9441385.425 7
  19782196.039    19782198.235   -12510794.176 9 -15748501.520 7
  20703288.096    20703290.038   -25350178.196 9  23087060.182 8
 89 11 25 10 49 59.0800000  0  4G 2G 6G11G 9
  24379847.789    24379851.727    14334258.306 9  10638297.800 8
  19409295.261    19409296.622    -4276258.677 9  -9449689.334 7
  19774381.645    19774383.371   -12551860.094 9 -15780500.940 7
  20688718.330    20688720.071   -25426741.078 8  23027400.818 9
 89 11 25 10 50 29.0800000  0  4G 2G 6G11G 9
  24395250.483    24395254.823    14415201.675 9  10701370.522 9
  19407349.165    19407349.456    -4286488.780 9  -9457660.843 7
  19766671.331    19766673.122   -12592383.554 9 -15812077.649 7
  20674189.334    20674191.010   -25503094.833 9  22967904.398 8
 89 11 25 10 50 59.0800000  0  4G 2G 6G11G 9
  24410652.871    24410654.556    14496142.062 9  10764441.031 6
  19405483.646    19405484.654    -4296290.563 9  -9465298.559 7
  19759061.486    19759064.873   -12632363.941 9 -15843231.192 7
  20659699.792    20659701.382   -25579237.208 9  22908572.689 8
 89 11 25 10 51 29.0800000  0  4G 2G 6G11G 9
  24426054.921    24426058.092    14577079.820 9  10827509.284 9
  19403699.175    19403702.052    -4305662.313 9  -9472601.250 7
  19751557.493    19751560.849   -12671800.810 9 -15873961.211 7
  20645250.339    20645251.973   -25655165.842 9  22849407.538 8
 89 11 25 10 51 59.0800000  0  4G 2G 6G11G 9
  24441456.434    24441459.220    14658014.299 8  10924002.464 6
  19401999.372    19402001.180    -4314601.957 9  -9479567.210 8
  19744154.938    19744158.881   -12710693.563 9 -15904267.244 6
  20630843.383    20630844.569   -25730877.987 9  22790411.086 9
 89 11 25 10 52 29.0800000  0  4G 2G 6G11G 9
  24456860.045    24456862.803    14738947.197 6  11020493.882 1
  19400380.656    19400382.084    -4323108.209 9  -9486195.471 7
  19736858.669    19736861.692   -12749041.880 9 -15934149.035 8
  20616476.927    20616477.999   -25806371.711 9  22731584.820 8
 89 11 25 10 52 59.0800000  0  4G 2G 6G11G 9
                                  14819166.153 1  11166895.754 1
  19398845.208    19398845.667    -4331179.128 7  -9492484.503 7
  19729665.530    19729668.415   -12786845.033 9 -15963606.031 8
  20602153.301    20602155.051   -25881644.264 9  22672930.888 8
